Radiation Dose at Monitoring Post of Fukushima Daini Nuclear Power Station
Date,Time,MP-1(microSv/h),MP-2(microSv/h),MP-3(microSv/h),MP-4(microSv/h),MP-5(microSv/h),MP-6(microSv/h),MP-7(microSv/h),Wind Direction,Wind Velocity(m/s),Rain
2019/10/12,00:00,0.180,0.160,0.268,0.253,0.257,0.137,0.085,northwest,7.4,Yes
2019/10/12,00:10,0.180,0.160,0.269,0.251,0.258,0.136,0.085,northwest,7.8,Yes
2019/10/12,00:20,0.181,0.159,0.269,0.252,0.257,0.136,0.085,north-northwest,7.9,Yes
2019/10/12,00:30,0.181,0.158,0.269,0.251,0.257,0.136,0.085,north-northwest,7.3,Yes
2019/10/12,00:40,0.180,0.158,0.270,0.251,0.257,0.136,0.085,north,6.7,Yes
2019/10/12,00:50,0.178,0.159,0.266,0.247,0.256,0.135,0.086,north-northwest,8.1,Yes
2019/10/12,01:00,0.179,0.158,0.266,0.250,0.257,0.135,0.086,north-northwest,7.9,Yes
2019/10/12,01:10,0.177,0.158,0.265,0.247,0.254,0.136,0.085,north-northwest,7.7,Yes
2019/10/12,01:20,0.179,0.158,0.266,0.246,0.257,0.135,0.084,north-northwest,7.1,Yes
2019/10/12,01:30,0.177,0.157,0.263,0.246,0.254,0.135,0.085,north-northwest,8.1,Yes
2019/10/12,01:40,0.175,0.157,0.263,0.242,0.256,0.134,0.085,northwest,7.0,Yes
2019/10/12,01:50,0.176,0.158,0.261,0.246,0.255,0.134,0.086,north-northwest,8.7,No
2019/10/12,02:00,0.176,0.158,0.265,0.245,0.255,0.135,0.085,north-northwest,8.6,No
2019/10/12,02:10,0.177,0.158,0.265,0.249,0.257,0.134,0.086,northwest,7.9,No
2019/10/12,02:20,0.176,0.159,0.267,0.247,0.256,0.135,0.085,north-northwest,7.5,Yes
2019/10/12,02:30,0.177,0.158,0.264,0.251,0.258,0.134,0.085,north-northwest,8.7,No
2019/10/12,02:40,0.175,0.159,0.266,0.248,0.256,0.135,0.086,north-northwest,8.4,No
2019/10/12,02:50,0.178,0.158,0.267,0.249,0.258,0.135,0.085,north-northwest,7.9,No
2019/10/12,03:00,0.178,0.159,0.267,0.249,0.254,0.134,0.085,north-northwest,7.2,Yes
2019/10/12,03:10,0.178,0.158,0.267,0.250,0.257,0.136,0.085,north-northwest,7.2,Yes
2019/10/12,03:20,0.177,0.158,0.266,0.249,0.257,0.133,0.085,north-northwest,8.2,Yes
2019/10/12,03:30,0.178,0.158,0.267,0.248,0.258,0.134,0.084,north-northwest,7.8,No
2019/10/12,03:40,0.179,0.159,0.266,0.250,0.257,0.134,0.086,north-northwest,7.6,No
2019/10/12,03:50,0.177,0.158,0.267,0.249,0.256,0.135,0.084,northwest,7.1,Yes
2019/10/12,04:00,0.178,0.159,0.265,0.251,0.257,0.134,0.085,north-northwest,8.6,No
2019/10/12,04:10,0.177,0.157,0.267,0.248,0.254,0.134,0.084,north-northwest,8.6,No
2019/10/12,04:20,0.179,0.159,0.266,0.250,0.258,0.134,0.085,north-northwest,8.7,No
2019/10/12,04:30,0.177,0.158,0.268,0.249,0.256,0.134,0.084,north-northwest,8.1,No
2019/10/12,04:40,0.179,0.159,0.265,0.250,0.257,0.135,0.085,north-northwest,7.5,No
2019/10/12,04:50,0.178,0.159,0.267,0.249,0.255,0.135,0.085,north-northwest,7.3,No
2019/10/12,05:00,0.178,0.158,0.267,0.250,0.257,0.134,0.085,north-northwest,7.0,Yes
2019/10/12,05:10,0.179,0.158,0.267,0.250,0.258,0.136,0.085,north-northwest,7.5,Yes
2019/10/12,05:20,0.178,0.159,0.267,0.248,0.256,0.134,0.084,northwest,8.1,No
2019/10/12,05:30,0.180,0.158,0.268,0.251,0.257,0.136,0.085,north-northwest,7.7,Yes
2019/10/12,05:40,0.178,0.158,0.269,0.249,0.255,0.135,0.084,north-northwest,7.5,Yes
2019/10/12,05:50,0.180,0.159,0.267,0.250,0.258,0.135,0.084,north-northwest,7.1,Yes
2019/10/12,06:00,0.177,0.158,0.269,0.249,0.255,0.135,0.085,north-northwest,8.1,No
2019/10/12,06:10,0.180,0.157,0.268,0.250,0.258,0.135,0.085,north-northwest,7.3,No
2019/10/12,06:20,0.179,0.158,0.268,0.250,0.258,0.136,0.085,northwest,6.4,No
2019/10/12,06:30,0.180,0.157,0.267,0.249,0.257,0.134,0.084,northwest,8.1,No
2019/10/12,06:40,0.179,0.157,0.268,0.252,0.258,0.135,0.085,north-northwest,8.5,No
2019/10/12,06:50,0.178,0.158,0.266,0.249,0.256,0.134,0.084,north-northwest,7.9,No
2019/10/12,07:00,0.179,0.158,0.267,0.250,0.259,0.134,0.084,north-northwest,8.8,No
2019/10/12,07:10,0.177,0.158,0.267,0.251,0.255,0.134,0.084,north-northwest,8.3,No
2019/10/12,07:20,0.180,0.157,0.267,0.250,0.257,0.134,0.084,northwest,7.9,No
2019/10/12,07:30,0.178,0.158,0.269,0.251,0.257,0.135,0.085,northwest,7.5,No
2019/10/12,07:40,0.179,0.159,0.265,0.250,0.255,0.134,0.084,north-northwest,9.2,Yes
2019/10/12,07:50,0.179,0.158,0.269,0.252,0.259,0.134,0.084,north-northwest,8.6,No
2019/10/12,08:00,0.178,0.158,0.267,0.250,0.256,0.136,0.084,north-northwest,9.2,No
2019/10/12,08:10,0.180,0.159,0.269,0.251,0.257,0.135,0.084,north-northwest,8.3,Yes
2019/10/12,08:20,0.178,0.159,0.268,0.250,0.257,0.135,0.084,north-northwest,8.7,Yes
2019/10/12,08:30,0.178,0.159,0.269,0.251,0.257,0.135,0.085,north-northwest,7.7,Yes
2019/10/12,08:40,0.179,0.160,0.269,0.251,0.259,0.135,0.084,north-northwest,9.0,Yes
2019/10/12,08:50,0.179,0.158,0.267,0.251,0.256,0.136,0.084,north-northwest,7.8,Yes
2019/10/12,09:00,0.180,0.158,0.270,0.253,0.258,0.135,0.085,north-northwest,8.1,Yes
2019/10/12,09:10,0.179,0.159,0.268,0.250,0.255,0.135,0.084,north-northwest,8.3,Yes
2019/10/12,09:20,0.180,0.159,0.269,0.252,0.259,0.135,0.085,north-northwest,7.5,Yes
2019/10/12,09:30,0.178,0.159,0.265,0.251,0.257,0.134,0.084,north-northwest,7.7,Yes
2019/10/12,09:40,0.180,0.159,0.269,0.251,0.255,0.136,0.085,north,7.3,No
2019/10/12,09:50,0.179,0.159,0.268,0.252,0.257,0.135,0.084,north,8.8,No
2019/10/12,10:00,0.179,0.158,0.267,0.249,0.255,0.135,0.084,north,7.3,Yes
2019/10/12,10:10,0.179,0.159,0.267,0.251,0.258,0.135,0.085,north,7.4,Yes
2019/10/12,10:20,0.178,0.156,0.264,0.248,0.255,0.134,0.085,north,5.5,Yes
2019/10/12,10:30,0.178,0.157,0.264,0.243,0.252,0.133,0.084,north-northeast,7.5,Yes
2019/10/12,10:40,0.174,0.156,0.257,0.238,0.252,0.132,0.084,north-northeast,7.2,Yes
2019/10/12,10:50,0.171,0.155,0.257,0.235,0.248,0.130,0.084,east-northeast,4.9,Yes
2019/10/12,11:00,0.167,0.155,0.256,0.237,0.253,0.130,0.084,northeast,9.0,Yes
2019/10/12,11:10,0.167,0.155,0.257,0.238,0.251,0.130,0.084,northeast,10.7,Yes
2019/10/12,11:20,0.170,0.157,0.260,0.243,0.252,0.132,0.084,northeast,9.5,Yes
2019/10/12,11:30,0.171,0.156,0.260,0.243,0.255,0.132,0.084,east-northeast,11.4,Yes
2019/10/12,11:40,0.173,0.158,0.262,0.243,0.254,0.131,0.085,east-northeast,10.9,Yes
2019/10/12,11:50,0.173,0.156,0.261,0.245,0.257,0.133,0.084,east-northeast,9.6,Yes
2019/10/12,12:00,0.174,0.157,0.264,0.243,0.255,0.132,0.084,east-northeast,9.2,No
2019/10/12,12:10,0.176,0.156,0.264,0.248,0.253,0.132,0.084,east-northeast,7.3,No
2019/10/12,12:20,0.174,0.156,0.262,0.247,0.257,0.133,0.084,east-northeast,6.8,No
2019/10/12,12:30,0.175,0.157,0.263,0.246,0.253,0.132,0.084,northeast,6.0,No
2019/10/12,12:40,0.175,0.156,0.261,0.249,0.255,0.132,0.084,north-northeast,5.4,Yes
2019/10/12,12:50,0.174,0.157,0.263,0.247,0.256,0.133,0.083,north,5.7,Yes
2019/10/12,13:00,0.176,0.156,0.264,0.247,0.253,0.132,0.083,north-northwest,6.0,Yes
2019/10/12,13:10,0.175,0.156,0.264,0.250,0.256,0.132,0.083,north-northwest,6.9,Yes
2019/10/12,13:20,0.176,0.157,0.265,0.247,0.255,0.132,0.082,north-northwest,5.3,Yes
2019/10/12,13:30,0.177,0.157,0.263,0.249,0.254,0.131,0.084,north,4.9,Yes
2019/10/12,13:40,0.175,0.157,0.265,0.247,0.257,0.132,0.084,northwest,3.1,Yes
2019/10/12,13:50,0.176,0.156,0.261,0.246,0.252,0.132,0.084,north-northwest,5.0,Yes
2019/10/12,14:00,0.177,0.157,0.262,0.245,0.255,0.132,0.084,northwest,7.3,Yes
2019/10/12,14:10,0.176,0.157,0.263,0.245,0.255,0.133,0.084,north-northwest,8.1,No
2019/10/12,14:20,0.178,0.156,0.263,0.248,0.255,0.132,0.084,northwest,7.4,No
2019/10/12,14:30,0.177,0.158,0.265,0.245,0.257,0.131,0.084,north-northwest,8.8,No
2019/10/12,14:40,0.177,0.156,0.263,0.249,0.254,0.132,0.084,north,8.2,No
2019/10/12,14:50,0.176,0.158,0.267,0.247,0.258,0.133,0.084,northeast,7.8,Yes
2019/10/12,15:00,0.178,0.157,0.263,0.249,0.255,0.133,0.084,northeast,11.2,Yes
2019/10/12,15:10,0.177,0.157,0.265,0.247,0.256,0.133,0.084,northeast,9.8,Yes
2019/10/12,15:20,0.177,0.156,0.265,0.248,0.256,0.133,0.084,northeast,14.5,Yes
2019/10/12,15:30,0.178,0.157,0.264,0.249,0.257,0.133,0.084,northeast,13.2,Yes
2019/10/12,15:40,0.177,0.156,0.265,0.247,0.257,0.132,0.084,-,CALM,Yes
2019/10/12,15:50,0.178,0.158,0.264,0.249,0.255,0.134,0.085,-,CALM,Yes
2019/10/12,16:00,0.176,0.157,0.263,0.245,0.255,0.133,0.085,-,CALM,Yes
2019/10/12,16:10,0.177,0.158,0.260,0.246,0.253,0.134,0.086,-,CALM,Yes
2019/10/12,16:20,0.174,0.157,0.260,0.241,0.255,0.134,0.086,-,CALM,Yes
2019/10/12,16:30,0.168,0.157,0.253,0.238,0.251,0.132,0.086,-,CALM,Yes
2019/10/12,16:40,0.166,0.156,0.255,0.236,0.252,0.132,0.086,-,CALM,Yes
2019/10/12,16:50,0.165,0.156,0.250,0.238,0.250,0.131,0.086,-,CALM,Yes
2019/10/12,17:00,0.161,0.156,0.250,0.235,0.251,0.132,0.087,-,CALM,Yes
2019/10/12,17:10,0.159,0.156,0.247,0.235,0.248,0.130,0.086,-,CALM,Yes
2019/10/12,17:20,0.157,0.155,0.245,0.231,0.246,0.128,0.086,-,CALM,Yes
2019/10/12,17:30,0.155,0.155,0.242,0.231,0.243,0.127,0.087,-,CALM,Yes
2019/10/12,17:40,0.159,0.156,0.244,0.233,0.244,0.127,0.088,-,CALM,Yes
2019/10/12,17:50,0.164,0.158,0.249,0.240,0.247,0.126,0.088,-,CALM,Yes
2019/10/12,18:00,0.165,0.159,0.253,0.240,0.250,0.129,0.089,-,CALM,Yes
2019/10/12,18:10,0.167,0.159,0.252,0.240,0.249,0.129,0.090,northeast,11.2,Yes
2019/10/12,18:20,0.166,0.159,0.251,0.238,0.249,0.130,0.090,-,CALM,Yes
2019/10/12,18:30,0.160,0.158,0.245,0.235,0.247,0.129,0.090,-,CALM,Yes
2019/10/12,18:40,0.162,0.159,0.248,0.235,0.246,0.129,0.090,southeast,1.0,Yes
2019/10/12,18:50,0.163,0.160,0.245,0.236,0.249,0.128,0.092,north-northwest,7.2,Yes
2019/10/12,19:00,0.163,0.161,0.249,0.240,0.249,0.129,0.093,east-northeast,7.8,Yes
2019/10/12,19:10,0.165,0.162,0.249,0.242,0.250,0.129,0.093,-,CALM,Yes
2019/10/12,19:20,0.164,0.161,0.252,0.242,0.247,0.129,0.094,-,CALM,Yes
2019/10/12,19:30,0.165,0.163,0.252,0.241,0.252,0.131,0.094,-,CALM,Yes
2019/10/12,19:40,0.166,0.161,0.252,0.242,0.250,0.131,0.094,-,CALM,Yes
2019/10/12,19:50,0.163,0.160,0.251,0.239,0.248,0.130,0.094,-,CALM,Yes
2019/10/12,20:00,0.167,0.162,0.253,0.245,0.253,0.133,0.097,-,CALM,Yes
2019/10/12,20:10,0.171,0.163,0.258,0.248,0.253,0.134,0.096,-,CALM,Yes
2019/10/12,20:20,0.169,0.162,0.255,0.244,0.251,0.133,0.096,-,CALM,Yes
2019/10/12,20:30,0.171,0.162,0.256,0.245,0.254,0.135,0.096,-,CALM,Yes
2019/10/12,20:40,0.168,0.161,0.256,0.244,0.250,0.134,0.096,-,CALM,Yes
2019/10/12,20:50,0.165,0.161,0.251,0.240,0.249,0.132,0.095,-,CALM,Yes
2019/10/12,21:00,0.168,0.162,0.254,0.244,0.252,0.134,0.096,-,CALM,Yes
2019/10/12,21:10,0.168,0.162,0.254,0.244,0.250,0.133,0.097,-,CALM,Yes
2019/10/12,21:20,0.168,0.161,0.252,0.243,0.251,0.132,0.097,-,CALM,Yes
2019/10/12,21:30,0.168,0.162,0.256,0.246,0.252,0.133,0.096,-,CALM,Yes
2019/10/12,21:40,0.169,0.165,0.255,0.247,0.250,0.134,0.099,-,CALM,Yes
2019/10/12,21:50,0.174,0.165,0.258,0.249,0.257,0.136,0.099,-,CALM,Yes
2019/10/12,22:00,0.174,0.166,0.260,0.251,0.256,0.138,0.099,southeast,22.3,Yes
2019/10/12,22:10,0.175,0.167,0.259,0.250,0.254,0.138,0.101,-,CALM,Yes
2019/10/12,22:20,0.174,0.165,0.259,0.249,0.255,0.138,0.099,southeast,11.1,Yes
2019/10/12,22:30,0.173,0.167,0.260,0.251,0.256,0.138,0.101,southeast,9.8,Yes
2019/10/12,22:40,0.172,0.167,0.257,0.250,0.253,0.138,0.101,-,CALM,Yes
2019/10/12,22:50,0.174,0.168,0.260,0.253,0.260,0.139,0.102,-,CALM,Yes
2019/10/12,23:00,0.174,0.169,0.262,0.256,0.259,0.138,0.103,-,CALM,Yes
2019/10/12,23:10,0.175,0.169,0.262,0.255,0.257,0.138,0.102,-,CALM,Yes
2019/10/12,23:20,0.178,0.169,0.265,0.256,0.260,0.139,0.103,-,CALM,Yes
2019/10/12,23:30,0.178,0.171,0.264,0.256,0.259,0.141,0.104,southeast,17.2,Yes
2019/10/12,23:40,0.180,0.171,0.264,0.258,0.260,0.142,0.105,-,CALM,Yes
2019/10/12,23:50,0.183,0.176,0.271,0.265,0.267,0.148,0.111,-,CALM,Yes
